TimeEST,TemperatureF,Dew PointF,Humidity,Sea Level PressureIn,VisibilityMPH,Wind Direction,Wind SpeedMPH,Gust SpeedMPH,PrecipitationIn,Events,Conditions,WindDirDegrees,DateUTC
12:03 AM,73.4,71.6,94,30.11,10.0,East,8.1,-,N/A,,Overcast,80,2013-01-08 05:03:00
12:13 AM,73.4,71.6,94,30.11,10.0,East,6.9,-,N/A,,Overcast,80,2013-01-08 05:13:00
12:53 AM,73.9,71.1,91,30.11,10.0,East,6.9,-,N/A,,Scattered Clouds,90,2013-01-08 05:53:00
1:53 AM,73.9,71.1,91,30.10,10.0,East,8.1,-,N/A,,Partly Cloudy,80,2013-01-08 06:53:00
2:53 AM,73.9,72.0,93,30.09,10.0,ESE,8.1,-,0.02,,Scattered Clouds,110,2013-01-08 07:53:00
3:53 AM,73.9,72.0,93,30.08,10.0,East,5.8,-,N/A,,Mostly Cloudy,100,2013-01-08 08:53:00
4:01 AM,73.4,71.6,94,30.08,2.5,East,13.8,19.6,0.10,Rain,Heavy Rain,90,2013-01-08 09:01:00
4:14 AM,73.4,71.6,94,30.08,6.0,East,10.4,-,0.13,Rain,Light Rain,100,2013-01-08 09:14:00
4:25 AM,73.4,71.6,94,30.08,10.0,ESE,6.9,-,0.13,,Overcast,110,2013-01-08 09:25:00
4:53 AM,73.9,71.1,91,30.09,10.0,ESE,9.2,17.3,0.13,,Mostly Cloudy,120,2013-01-08 09:53:00
5:53 AM,73.9,71.1,91,30.12,10.0,ESE,9.2,-,N/A,,Scattered Clouds,120,2013-01-08 10:53:00
6:53 AM,73.9,71.1,91,30.14,10.0,ESE,8.1,-,N/A,,Mostly Cloudy,120,2013-01-08 11:53:00
7:53 AM,75.0,72.0,90,30.16,10.0,ESE,8.1,-,N/A,,Clear,110,2013-01-08 12:53:00
8:53 AM,77.0,72.0,84,30.19,10.0,ESE,12.7,-,0.01,,Partly Cloudy,120,2013-01-08 13:53:00
9:53 AM,78.1,72.0,81,30.21,10.0,ESE,15.0,-,N/A,,Clear,120,2013-01-08 14:53:00
10:53 AM,79.0,72.0,79,30.20,10.0,SE,12.7,-,N/A,,Clear,130,2013-01-08 15:53:00
11:53 AM,79.0,73.0,82,30.18,10.0,ESE,10.4,-,N/A,,Clear,110,2013-01-08 16:53:00
12:53 PM,81.0,73.0,77,30.17,10.0,SE,11.5,-,N/A,,Clear,130,2013-01-08 17:53:00
1:53 PM,80.1,72.0,76,30.15,10.0,SE,16.1,20.7,N/A,,Partly Cloudy,130,2013-01-08 18:53:00
2:53 PM,80.1,72.0,76,30.14,10.0,ESE,11.5,-,N/A,,Clear,110,2013-01-08 19:53:00
3:53 PM,79.0,72.0,79,30.14,10.0,ESE,11.5,-,N/A,,Scattered Clouds,110,2013-01-08 20:53:00
4:12 PM,78.8,71.6,78,30.15,10.0,ESE,11.5,-,N/A,,Mostly Cloudy,120,2013-01-08 21:12:00
4:35 PM,78.8,73.4,83,30.15,10.0,ESE,12.7,-,N/A,,Scattered Clouds,110,2013-01-08 21:35:00
4:53 PM,77.0,73.0,88,30.15,10.0,ESE,12.7,-,N/A,,Scattered Clouds,110,2013-01-08 21:53:00
5:53 PM,75.9,73.0,91,30.17,9.0,East,11.5,-,N/A,,Partly Cloudy,100,2013-01-08 22:53:00
6:53 PM,75.9,73.0,91,30.17,10.0,East,13.8,-,N/A,,Scattered Clouds,100,2013-01-08 23:53:00
7:53 PM,75.9,73.0,91,30.17,10.0,East,12.7,-,N/A,,Mostly Cloudy,100,2013-01-09 00:53:00
8:53 PM,75.9,73.0,91,30.18,10.0,East,16.1,-,N/A,,Partly Cloudy,100,2013-01-09 01:53:00
9:53 PM,75.9,73.9,94,30.17,10.0,ESE,13.8,21.9,0.00,,Scattered Clouds,110,2013-01-09 02:53:00
10:53 PM,75.9,72.0,87,30.18,10.0,ESE,13.8,-,0.03,,Mostly Cloudy,120,2013-01-09 03:53:00